Date,TemperatureHighF,TemperatureAvgF,TemperatureLowF,DewpointHighF,DewpointAvgF,DewpointLowF,HumidityHigh,HumidityAvg,HumidityLow,PressureMaxIn,PressureMinIn,WindSpeedMaxMPH,WindSpeedAvgMPH,GustSpeedMaxMPH,PrecipitationSumIn
2013-2-1,85.8,55.0,31.6,62.1,32.4,20.8,76,46,21,30.38,30.01,18,4,18,0.00
2013-2-2,90.0,61.3,37.8,53.6,44.5,35.4,92,58,24,30.34,30.06,11,2,11,0.00
2013-2-3,90.7,58.4,36.9,48.0,37.8,25.9,87,53,15,30.37,30.04,11,3,11,0.00
2013-2-4,83.5,64.2,49.1,58.3,53.9,46.6,91,71,38,30.10,29.84,15,5,15,0.00
2013-2-5,91.0,61.3,40.1,51.6,44.7,37.2,99,63,19,30.04,29.90,8,2,8,0.00
2013-2-6,83.3,65.8,55.2,60.3,55.6,47.1,92,71,45,30.03,29.86,13,4,13,0.00
2013-2-7,92.5,69.3,58.8,60.4,52.2,33.1,96,62,20,30.14,29.89,14,4,14,0.00
2013-2-8,83.7,59.7,43.3,62.1,33.5,21.6,75,44,13,30.28,29.94,10,3,10,0.00
2013-2-9,69.6,58.0,45.0,66.0,53.9,22.8,98,87,53,30.51,29.78,25,5,25,0.00
2013-2-10,74.1,60.9,50.7,67.1,47.4,27.9,98,67,21,30.06,29.75,22,3,23,0.00
2013-2-11,68.7,54.6,48.6,50.9,46.8,41.2,94,76,51,30.14,30.01,10,2,10,0.00
2013-2-12,80.6,59.0,46.2,57.4,44.0,22.1,99,66,16,30.12,29.86,14,4,14,0.00
2013-2-13,72.3,48.7,33.8,37.9,33.0,28.2,86,60,21,30.20,30.06,9,3,11,0.00
2013-2-14,77.9,53.7,28.9,43.3,33.3,27.1,95,55,17,30.15,30.01,16,3,16,0.00
2013-2-15,69.8,49.7,31.6,40.5,34.0,22.5,85,57,33,30.42,30.09,11,3,11,0.00
2013-2-16,77.0,47.4,25.0,33.4,25.4,19.9,87,50,15,30.48,30.20,9,2,9,0.00
2013-2-17,73.4,53.2,33.4,51.1,35.5,25.0,76,54,26,30.23,29.98,23,7,23,0.00
2013-2-18,88.0,68.5,52.7,58.8,44.3,19.9,79,49,13,30.17,29.87,19,7,19,0.00
2013-2-19,76.6,57.8,35.2,36.1,28.3,21.4,74,36,15,30.31,30.12,12,3,12,0.00
2013-2-20,64.2,56.4,53.2,63.3,46.3,28.8,99,72,35,30.33,29.67,14,5,14,0.00
2013-2-21,82.6,65.4,40.8,65.7,40.7,19.9,99,50,12,30.45,29.60,21,7,21,0.00
2013-2-22,75.6,49.2,36.9,39.0,31.8,24.8,86,55,21,30.11,29.87,9,3,9,0.00
2013-2-23,83.3,52.8,30.0,36.9,30.7,23.5,84,50,14,30.11,29.91,13,2,13,0.00
2013-2-24,78.3,56.7,32.4,57.6,42.2,28.0,87,62,34,29.96,29.69,23,5,23,0.00
2013-2-25,64.2,55.7,45.5,60.1,34.2,20.8,94,49,20,29.88,29.59,27,10,27,0.00
2013-2-26,78.8,53.9,36.7,55.2,28.0,20.5,89,41,15,30.16,29.87,17,4,17,0.00
2013-2-27,80.4,52.6,34.2,34.0,25.0,18.1,57,37,15,30.27,29.88,15,4,15,0.00
2013-2-28,74.8,47.7,30.6,31.1,23.6,17.4,70,44,14,30.37,30.11,12,2,12,0.00